• In Belarus
  • List of Countries
  • For 7 days
  • Water Temperature
  • Weather Map
  • Weather Widgets
  • user-avatar
    Login

    Hourly Weather Saurimo

    Today, 25 August, Sunday

    Time Temperature Precipitation Wind Pressure Humidity
    00:00 +20°C° 0 mm 1 mps 671 mmHg 28%
    01:00 +19°C° 0 mm 1 mps 671 mmHg 27%
    02:00 +18°C° 0 mm 2 mps 671 mmHg 27%
    03:00 +17°C° 0 mm 2 mps 671 mmHg 28%
    04:00 +17°C° 0 mm 2 mps 670 mmHg 28%
    05:00 +18°C° 0 mm 2 mps 671 mmHg 26%
    06:00 +19°C° 0 mm 3 mps 672 mmHg 25%
    07:00 +20°C° 0 mm 3 mps 672 mmHg 23%
    08:00 +24°C° 0 mm 3 mps 673 mmHg 20%
    09:00 +28°C° 0 mm 3 mps 673 mmHg 17%
    10:00 +32°C° 0 mm 4 mps 674 mmHg 14%
    11:00 +35°C° 0 mm 3 mps 674 mmHg 13%
    12:00 +37°C° 0 mm 2 mps 674 mmHg 12%
    13:00 +40°C° 0 mm 1 mps 673 mmHg 11%
    14:00 +36°C° 0 mm 0 mps 673 mmHg 12%
    15:00 +34°C° 0 mm 0 mps 672 mmHg 13%
    16:00 +33°C° 0 mm 0 mps 671 mmHg 14%
    17:00 +32°C° 0 mm 1 mps 671 mmHg 17%
    18:00 +29°C° 0 mm 1 mps 671 mmHg 20%
    19:00 +26°C° 0 mm 1 mps 671 mmHg 23%
    20:00 +25°C° 0 mm 1 mps 671 mmHg 24%
    21:00 +24°C° 0 mm 1 mps 671 mmHg 25%
    22:00 +24°C° 0 mm 1 mps 671 mmHg 26%
    23:00 +23°C° 0 mm 1 mps 671 mmHg 27%

    Tomorrow, 26 August, Monday

    Time Temperature Precipitation Wind Pressure Humidity
    00:00 +22°C° 0 mm 1 mps 671 mmHg 29%
    01:00 +21°C° 0 mm 1 mps 671 mmHg 30%
    02:00 +21°C° 0 mm 1 mps 671 mmHg 31%
    03:00 +20°C° 0 mm 1 mps 670 mmHg 32%
    04:00 +19°C° 0 mm 1 mps 670 mmHg 33%
    05:00 +20°C° 0 mm 1 mps 671 mmHg 31%
    06:00 +21°C° 0 mm 1 mps 672 mmHg 29%
    07:00 +22°C° 0 mm 1 mps 673 mmHg 27%
    08:00 +26°C° 0 mm 1 mps 673 mmHg 23%
    09:00 +30°C° 0 mm 2 mps 674 mmHg 19%
    10:00 +35°C° 0 mm 2 mps 674 mmHg 15%
    11:00 +36°C° 0 mm 2 mps 674 mmHg 14%
    12:00 +37°C° 0 mm 2 mps 673 mmHg 13%
    13:00 +39°C° 0 mm 2 mps 673 mmHg 13%
    14:00 +38°C° 0 mm 2 mps 672 mmHg 13%
    15:00 +37°C° 0 mm 2 mps 671 mmHg 14%
    16:00 +37°C° 0 mm 2 mps 671 mmHg 14%
    17:00 +33°C° 0 mm 1 mps 671 mmHg 18%
    18:00 +30°C° 0 mm 1 mps 670 mmHg 21%
    19:00 +27°C° 0 mm 1 mps 670 mmHg 25%
    20:00 +26°C° 0 mm 1 mps 670 mmHg 28%
    21:00 +24°C° 0 mm 1 mps 670 mmHg 31%
    22:00 +21°C° 0 mm 0 mps 670 mmHg 34%
    23:00 +21°C° 0 mm 0 mps 670 mmHg 36%

    Day after tomorrow, 27 August, Tuesday

    Time Temperature Precipitation Wind Pressure Humidity
    00:00 +20°C° 0 mm 0 mps 670 mmHg 38%
    01:00 +22°C° 0 mm 1 mps 670 mmHg 40%
    02:00 +19°C° 0 mm 0 mps 670 mmHg 43%
    03:00 +19°C° 0 mm 0 mps 670 mmHg 47%
    04:00 +18°C° 0 mm 0 mps 670 mmHg 50%
    05:00 +19°C° 0 mm 0 mps 671 mmHg 48%
    06:00 +23°C° 0 mm 1 mps 672 mmHg 46%
    07:00 +24°C° 0 mm 1 mps 672 mmHg 43%
    08:00 +29°C° 0 mm 1 mps 673 mmHg 35%
    09:00 +33°C° 0 mm 1 mps 674 mmHg 27%
    10:00 +36°C° 0 mm 0 mps 675 mmHg 19%
    11:00 +39°C° 0 mm 1 mps 674 mmHg 19%
    12:00 +39°C° 0 mm 1 mps 673 mmHg 18%
    13:00 +39°C° 0 mm 2 mps 672 mmHg 18%
    14:00 +38°C° 0 mm 2 mps 672 mmHg 20%
    15:00 +35°C° 0 mm 1 mps 671 mmHg 21%
    16:00 +34°C° 0 mm 1 mps 670 mmHg 23%
    17:00 +32°C° 0 mm 1 mps 670 mmHg 27%
    18:00 +28°C° 0 mm 0 mps 670 mmHg 30%
    19:00 +26°C° 0 mm 0 mps 670 mmHg 34%
    20:00 +25°C° 0 mm 0 mps 670 mmHg 35%
    21:00 +24°C° 0 mm 0 mps 670 mmHg 37%
    22:00 +25°C° 0 mm 1 mps 670 mmHg 39%
    23:00 +24°C° 0 mm 1 mps 670 mmHg 41%

    28 August, Wednesday

    Time Temperature Precipitation Wind Pressure Humidity
    00:00 +24°C° 0 mm 1 mps 670 mmHg 42%
    01:00 +23°C° 0 mm 1 mps 670 mmHg 44%
    02:00 +22°C° 0 mm 1 mps 669 mmHg 47%
    03:00 +22°C° 0 mm 1 mps 669 mmHg 49%
    04:00 +21°C° 0 mm 1 mps 669 mmHg 51%
    05:00 +22°C° 0 mm 1 mps 670 mmHg 49%
    06:00 +23°C° 0 mm 1 mps 670 mmHg 46%
    07:00 +24°C° 0 mm 1 mps 671 mmHg 43%
    08:00 +27°C° 0 mm 1 mps 672 mmHg 38%
    09:00 +31°C° 0 mm 1 mps 672 mmHg 33%
    10:00 +35°C° 0 mm 2 mps 673 mmHg 28%
    11:00 +36°C° 0 mm 2 mps 672 mmHg 25%
    12:00 +37°C° 0 mm 2 mps 672 mmHg 22%
    13:00 +38°C° 0 mm 2 mps 671 mmHg 20%
    14:00 +37°C° 0 mm 2 mps 671 mmHg 20%
    15:00 +37°C° 0 mm 2 mps 670 mmHg 21%
    16:00 +36°C° 0 mm 2 mps 670 mmHg 22%
    17:00 +33°C° 0 mm 1 mps 670 mmHg 25%
    18:00 +31°C° 0 mm 1 mps 670 mmHg 29%
    19:00 +29°C° 0 mm 1 mps 670 mmHg 33%
    20:00 +27°C° 0 mm 1 mps 670 mmHg 38%
    21:00 +26°C° 0 mm 1 mps 670 mmHg 43%
    22:00 +24°C° 0 mm 1 mps 670 mmHg 48%
    23:00 +24°C° 0 mm 1 mps 670 mmHg 48%

    29 August, Thursday

    Time Temperature Precipitation Wind Pressure Humidity
    00:00 +25°C° 0 mm 1 mps 670 mmHg 48%
    01:00 +25°C° 0 mm 1 mps 670 mmHg 48%
    02:00 +24°C° 0 mm 1 mps 670 mmHg 50%
    03:00 +24°C° 0 mm 1 mps 669 mmHg 52%
    04:00 +23°C° 0 mm 1 mps 669 mmHg 55%
    05:00 +24°C° 0 mm 1 mps 670 mmHg 54%
    06:00 +24°C° 0 mm 2 mps 671 mmHg 53%
    07:00 +25°C° 0 mm 2 mps 671 mmHg 53%
    08:00 +28°C° 0 mm 2 mps 672 mmHg 46%
    09:00 +30°C° 0 mm 2 mps 672 mmHg 39%
    10:00 +34°C° 0 mm 2 mps 673 mmHg 32%
    11:00 +36°C° 0 mm 2 mps 672 mmHg 28%
    12:00 +37°C° 0 mm 1 mps 672 mmHg 24%
    13:00 +40°C° 0 mm 1 mps 671 mmHg 19%
    14:00 +37°C° 0 mm 1 mps 670 mmHg 21%
    15:00 +36°C° 0 mm 1 mps 670 mmHg 23%
    16:00 +35°C° 0 mm 2 mps 669 mmHg 25%
    17:00 +32°C° 0 mm 1 mps 669 mmHg 29%
    18:00 +30°C° 0 mm 1 mps 669 mmHg 32%
    19:00 +28°C° 0 mm 1 mps 669 mmHg 36%
    20:00 +28°C° 0 mm 1 mps 669 mmHg 37%
    21:00 +27°C° 0 mm 1 mps 669 mmHg 39%
    22:00 +26°C° 0 mm 1 mps 670 mmHg 41%
    23:00 +25°C° 0 mm 1 mps 669 mmHg 44%

    30 August, Friday

    Time Temperature Precipitation Wind Pressure Humidity
    00:00 +24°C° 0 mm 1 mps 669 mmHg 47%
    01:00 +23°C° 0 mm 1 mps 669 mmHg 50%
    02:00 +23°C° 0 mm 1 mps 669 mmHg 53%
    03:00 +22°C° 0 mm 1 mps 668 mmHg 55%
    04:00 +21°C° 0 mm 2 mps 668 mmHg 57%
    05:00 +23°C° 0 mm 2 mps 669 mmHg 55%
    06:00 +24°C° 0 mm 2 mps 670 mmHg 52%
    07:00 +25°C° 0 mm 2 mps 670 mmHg 49%
    08:00 +28°C° 0 mm 2 mps 671 mmHg 42%
    09:00 +30°C° 0 mm 2 mps 672 mmHg 36%
    10:00 +34°C° 0 mm 2 mps 672 mmHg 29%
    11:00 +36°C° 0 mm 2 mps 672 mmHg 25%
    12:00 +39°C° 0 mm 1 mps 671 mmHg 21%
    13:00 +38°C° 0 mm 0 mps 671 mmHg 17%
    14:00 +39°C° 0 mm 1 mps 670 mmHg 19%
    15:00 +36°C° 0 mm 1 mps 670 mmHg 21%
    16:00 +35°C° 0 mm 2 mps 669 mmHg 23%
    17:00 +32°C° 0 mm 1 mps 669 mmHg 27%
    18:00 +30°C° 0 mm 1 mps 669 mmHg 31%
    19:00 +27°C° 0 mm 1 mps 669 mmHg 35%
    20:00 +27°C° 0 mm 1 mps 669 mmHg 38%
    21:00 +26°C° 0 mm 1 mps 669 mmHg 41%
    22:00 +26°C° 0 mm 1 mps 669 mmHg 43%
    23:00 +25°C° 0 mm 1 mps 669 mmHg 46%
    Show more